Location: Fisheating Creek Campgrounds
(26.9333°N, 81.3167°W)
Time: 14:22:59
(UTC-05:00)

Daily predictions for brighter satellites

Satellite Brightness Start Highest point End
(mag) Time Altitude Azimuth Time Altitude Azimuth Time Altitude Azimuth
Atlas 2A Centaur Rocket 3.9 17:35:19 10° W 18:01:07 83° SSW 18:05:39 10° ESE
AQUARIUS 4.1 17:57:07 10° SSE 18:01:34 70° ENE 18:06:02 10° N
NOSS 2-2 (D) 4.3 17:58:40 10° S 18:02:07 29° ESE 18:05:33 10° NE
Cosmos 2322 Rocket 4.0 18:01:22 10° ESE 18:02:13 10° E 18:03:05 10° E
RESURS DK-1 3.4 18:00:12 10° SSE 18:03:39 26° ESE 18:07:08 10° NE
SJ 16-02 2.4 18:00:30 10° SSW 18:04:42 46° WNW 18:08:56 10° N
CSL-04 Rocket 3.8 17:59:31 10° SSE 18:04:54 88° WSW 18:10:24 10° NNW
ISS -3.3 18:02:11 10° NNW 18:05:17 38° NE 18:08:21 10° ESE
IRAS Rocket 4.4 18:05:15 10° SSE 18:10:44 81° WSW 18:16:14 10° NNW
COSMO-SKYMED 1 2.7 18:06:46 10° NNE 18:11:03 56° E 18:15:16 10° S
Centaur D AC-29 3.7 18:09:25 10° WSW 18:12:24 17° SSW 18:14:51 10° SSE
Meteor 1-28 Rocket 4.5 18:10:08 10° N 18:13:44 43° WNW 18:17:19 10° SSW
Cosmos 1697 Rocket 3.1 18:11:28 10° SSW 18:17:04 68° WNW 18:22:42 10° NNE
Hubble Space Telescope 1.1 18:13:05 10° W 18:17:11 66° SSW 18:21:18 10° ESE
NOSS 2-2 (E) 3.4 18:13:46 10° SSW 18:17:36 59° ESE 18:21:33 10° NE
Cosmos 1515 3.6 18:14:58 10° S 18:18:43 70° E 18:22:29 10° N
CZ-4 R/B 1.3 18:18:48 10° S 18:22:38 85° W 18:26:33 10° NNW
NOSS 2-2 (C) 3.3 18:20:42 10° SSW 18:24:32 59° ESE 18:28:02 13° NE
SPOT 3 Rocket 4.2 18:20:50 10° SE 18:25:24 33° ENE 18:29:57 10° N
Shenzhou-11 Module 2.2 18:22:38 10° SW 18:25:34 56° SE 18:27:25 20° ENE
Cosmos 1025 Rocket 2.9 18:22:53 10° S 18:27:10 73° E 18:31:27 10° N
Ariane Rocket 3.7 18:22:40 10° S 18:27:37 57° WSW 18:32:35 10° NNW
EO 1 Del DPAF 3.1 18:24:10 10° NNE 18:27:58 74° ESE 18:31:46 10° S
MONITOR-E 4.5 18:29:58 10° SSE 18:32:51 40° ENE 18:35:44 10° N
Okean 1-7 Rocket 3.5 18:29:04 10° S 18:33:22 62° E 18:37:43 10° NNE
Meteor 1-15 Rocket 4.3 18:27:42 10° N 18:33:34 62° E 18:39:19 10° SSE
ERS-2 2.6 18:30:11 10° SE 18:33:35 37° ENE 18:36:59 10° N
SMAP 4.4 18:31:05 10° S 18:35:28 43° W 18:39:53 10° NNW
Tiangong 2 3.0 18:36:03 10° S 18:38:13 17° SE 18:38:51 16° ESE
Cosmos 2082 3.7 18:33:33 10° NNW 18:39:11 87° WSW 18:44:49 10° SSE
Thor Agena Rocket 4.3 18:40:38 18° NE 18:43:47 33° E 18:48:28 10° SSE
Okean 2 3.9 18:40:19 10° SSW 18:44:22 62° W 18:48:25 10° N
Cosmos 1184 Rocket 2.6 18:44:52 10° S 18:48:06 69° E 18:49:51 25° NNE
USA 238 DEB 4.1 18:41:11 10° NNW 18:48:17 71° WSW 18:55:27 10° SSE
USA 238 4.1 18:41:17 10° NNW 18:48:24 72° WSW 18:55:34 10° SSE
Cosmos 2227 Rocket 3.1 18:44:37 10° NNW 18:50:04 51° WSW 18:55:29 10° S
Cosmos 1269 Rocket 4.0 18:45:01 10° NNW 18:50:20 85° WSW 18:55:36 10° SSE
ALOS 2.2 18:45:57 10° SSE 18:50:33 65° ENE 18:55:11 10° N
Cosmos 2360 Rocket 4.2 18:54:46 10° SE 18:54:56 10° SE 18:54:56 10° SE
Cosmos 1980 Rocket 3.0 18:53:06 10° SW 18:58:34 50° WNW 19:04:05 10° N
Cosmos 1066 Rocket 4.1 18:56:15 10° S 19:01:51 84° E 19:07:19 10° N
Skynet4D Del rocket 3.6 18:56:27 10° W 19:02:40 85° S 19:05:20 33° E
SL-8 R/B 4.5 18:58:15 10° WSW 19:02:52 45° NW 19:05:16 25° NNE
Cosmos 1606 Rocket 3.6 19:02:51 35° NNE 19:04:12 49° E 19:08:21 10° SSE
Cosmos 2297 Rocket 3.9 19:11:21 10° NW 19:16:22 34° WSW 19:21:22 10° SSW
NOSS 3-2 (A) 4.1 19:08:48 10° NNW 19:16:44 83° WSW 19:25:05 10° SSE
GOES 2 Rocket 3.2 19:13:03 10° W 19:17:29 80° SSW 19:18:46 50° ESE
GPS 2-04 Rocket1 3.1 19:19:14 10° SW 19:21:55 48° SSW 19:21:55 48° SSW
Cosmos 1892 Rocket 3.9 19:18:42 10° SSW 19:23:07 64° W 19:25:33 26° N
NOSS 3-2 (C) 4.0 19:17:11 10° NNW 19:25:07 85° ENE 19:33:31 10° SSE
SWIFT 3.5 19:22:52 10° WSW 19:26:40 33° S 19:26:45 33° S
Cosmos 2344 3.4 19:19:57 10° SSW 19:27:52 79° ESE 19:31:20 37° NE
ATLAS 3B R/B 4.3 19:22:27 10° NW 19:28:07 32° WSW 19:33:45 10° S
USA 215 3.6 19:21:57 10° SSE 19:28:24 63° SW 19:34:52 10° NW
Lacrosse 5 rocket 1.8 19:25:12 10° SW 19:29:12 55° NW 19:29:24 54° NW
Atlas Centaur 2 2.5 19:25:06 10° W 19:29:53 41° SSW 19:30:51 35° S
Delta 2 Rocket 4.2 19:24:56 10° WNW 19:30:20 61° SSW 19:31:34 46° SSE
S3M 4.3 19:32:17 10° SSW 19:38:19 62° W 19:44:07 11° N
ASC 2 Rocket 3.9 19:35:42 10° WSW 19:38:46 42° SSW 19:38:46 42° SSW
SL-16 R/B 2.3 19:35:35 10° SSW 19:41:13 71° WNW 19:42:32 52° N
ISS -0.3 19:40:48 10° WSW 19:41:26 10° SW 19:42:04 10° SW
BREEZE-M DEB (TANK) 4.2 19:32:35 10° SSW 19:41:10 36° SSE 19:41:10 36° SSE
Cosmos 2322 Rocket 2.4 19:40:02 10° SSW 19:45:34 66° WNW 19:46:37 54° NNW
Hubble Space Telescope 3.1 19:55:00 10° WSW 19:57:28 20° SW 19:57:28 20° SW
CENTAUR R/B 3.3 20:00:21 10° NNW 20:06:43 56° N 20:06:43 56° N
CZ-3C R/B 4.2 20:02:31 10° W 20:21:24 29° SW 20:23:49 23° S
Cosmos 2360 Rocket 4.4 20:35:18 10° SSW 20:36:46 18° SW 20:36:46 18° SW
